STARLINK-1278, 45408

Orbit data source: Space-Track

STARLINK-1278, 45408 is a payload satellite owned by SpaceX/Seattle (US) in LEO that was launched on Wed, 18 Mar 2020 UTC via an FALCON 9 launch vehicle from the Air Force Eastern Test Range (AFETR). Payload-class satellites include a variety of spacecraft equipped with specific instruments for various scientific and technological missions. These include communications satellites like Starlink; space stations such as the ISS; scientific satellites like the Hubble; Earth observation satellites from companies like Planet Labs, Umbra, and HawkEye 360; GPS; miniature CubeSats for education and research; and military/defense satellites.

Loading next visibility...
Identifier
45408, 2020-019BA
Orbit
LEO
Country
Flag of USUS
Related business
Manufacturer
SpaceX/Seattle
Mission
Partially operational Commercial Communications
Bus & Motor
STARLINK, Unknown motor
Mass
260 kg wet, ~248 kg dry
Launch date (UTC)
2020-03-18 (6 years ago)
Launch vehicle
FALCON 9
Launch site
Air Force Eastern Test Range (AFETR)
Object type
Payload
Rocket body
Debris
Shape & HBR
Box + 1 Pan, 10.1 m
Radar Cross Section
13.562 m², Large (>1 m²)

Expand to show TLE details & history
Last TLE update: 4 hours ago

TLE from 4 hours ago
0 STARLINK-1278
1 45408U 20019BA  25296.66671296  .01818171  00000-0  59998-1 0  9998
2 45408  53.0536  60.9508 0001470 103.0130 320.6734 15.27912979  5803
Epoch: 2025-10-23T16:00Z
TLE epoch observation values (Epoch: 2025-10-23T16:00:03.999Z)
Latitude
45.89449°
Longitude
-160.88538°
Altitude
486.147 km
Speed
7.628 km/s
True Right ascension
07h 25m 48s
True Declination
45° 42' 57"
Sunlit
Object was in daylight at epoch
Visualization orbit readout
Latitude
Unknown
Longitude
Unknown
Altitude
Unknown
Speed
Unknown
Apparent Right ascension
Unknown
Apparent Declination
Unknown
Sunlit
N/A
Visualization observer readout
Local Sidereal Time
15:00:51
Azimuth
Unknown
Elevation
Unknown
Doppler factor
Unknown
Orbital elements
Apogee altitude
483.334 km
Perigee altitude
481.317 km
Semi-major axis
6,860.463 km
Eccentricity
0.00015
Inclination
53.0536°
RAAN
60.9508°
Arg. of periapsis
103.013°
True anomaly
320.66272°
Mean anomaly
320.6734°
Eccentric anomaly
320.66806°
Mean motion
3.81956 °/min
Orbital period
94.25 mins
BSTAR
0.059998
Loading maneuver chart data...
Computing Atmospheric mass density...
Loading historical data...
Loading historical data...
Loading historical data...
Loading historical data...
Loading historical data...
Loading historical data...
Loading historical data...

Documentation

Showing up to 5 results
|